Zurück zum Katalog

COSMOS 2586

AktivMilitärPO
NORAD 63289·PAYLOAD·🇷🇺 Russia

Gestartet Mar 16, 2025 von Plesetsk Cosmodrome

Loading…

Nächste Überflüge (nächste 24 Stunden)

TLE

AktuellSource: Space-Track

Epoche: Sep 14, 2026, 03:28 UTC

1 63289U 25054B   26257.14501329  .00000013  00000-0  23416-4 0  9995
2 63289  82.4959  23.1489 0021155 186.8588 173.2205 12.42879119 67908

Verfolge COSMOS 2586 in Echtzeit mit AllMySat

Download on the App Store